Location: Pinawa
(50.1500°N, 95.8830°W)
Time: 16:33:55
(UTC-06:00)

Daily predictions for brighter satellites

Satellite Brightness Start Highest point End
(mag) Time Altitude Azimuth Time Altitude Azimuth Time Altitude Azimuth
USA 238 DEB 4.0 16:48:34 10° NW 16:55:42 86° SW 17:02:53 10° SE
USA 238 3.9 16:48:40 10° NW 16:55:48 86° SW 17:03:00 10° SE
Ariane Rocket 3.4 16:53:22 10° SE 16:58:02 39° ENE 17:02:44 10° N
Cosmos 1656 Rocket 4.1 16:52:51 10° SW 16:58:18 61° WNW 17:03:44 10° NNE
Cosmos 1898 Rocket 3.7 16:53:49 10° SSW 16:59:03 82° WNW 17:04:22 10° NNE
Cosmos 724 4.2 16:55:09 10° NW 17:00:59 75° NE 17:06:47 10° SE
Cosmos 2369 Rocket 3.9 17:00:07 10° W 17:04:35 24° NW 17:09:05 10° NNE
Cosmos 1937 Rocket 3.5 17:00:29 10° SSW 17:05:40 86° ESE 17:10:51 10° NNE
Cosmos 1655 Rocket 4.1 16:59:20 10° N 17:05:45 74° ENE 17:12:09 10° SSE
Cosmos 1743 2.7 17:02:21 10° N 17:06:14 63° ENE 17:10:06 10° SSE
Cosmos 1697 Rocket 4.2 17:02:52 10° SE 17:06:32 18° E 17:10:12 10° ENE
Meteor 1-18 Rocket 4.3 17:01:19 10° S 17:06:55 85° ESE 17:12:41 10° NNE
COSMOS 2455 4.4 17:03:28 10° NNW 17:07:25 17° NNE 17:11:22 10° NE
Cosmos 1269 Rocket 4.3 17:03:08 10° NNW 17:08:18 47° ENE 17:13:24 10° SE
IRAS Rocket 4.3 17:04:12 10° SE 17:09:34 59° ENE 17:14:58 10° N
YAOGAN 1 3.5 17:07:20 10° ESE 17:10:54 25° ENE 17:14:29 10° N
Cosmos 1125 Rocket 4.4 17:06:26 10° SSE 17:10:57 30° E 17:15:29 10° NE
Cosmos 1048 Rocket 4.1 17:08:28 10° NNW 17:13:50 61° ENE 17:19:09 10° SE
NOSS 2-3 (D) 4.2 17:10:17 10° SW 17:15:06 72° NW 17:20:58 10° NE
Cosmos 389 Rocket 2.8 17:13:58 10° NNW 17:17:26 68° W 17:20:52 10° S
Cosmos 2082 3.7 17:12:00 10° NNW 17:17:40 79° ENE 17:23:18 10° SSE
ERS-2 3.6 17:18:50 10° ESE 17:21:16 17° ENE 17:23:41 10° NNE
NOSS 3-2 (A) 4.0 17:15:42 10° NW 17:23:04 87° NE 17:31:12 10° SE
COSMO-SKYMED 1 4.2 17:21:00 11° ENE 17:23:09 15° E 17:25:43 10° SE
SJ 16-02 2.1 17:21:14 10° SSE 17:25:09 33° ESE 17:28:57 11° NE
Cosmos 1818 4.4 17:21:54 10° WSW 17:27:06 44° NW 17:32:20 10° NNE
Cosmos 990 Rocket 4.3 17:22:26 10° SSW 17:27:34 70° WNW 17:32:47 10° NNE
Cosmos 2227 Rocket 2.5 17:22:08 10° NNW 17:27:48 74° WSW 17:33:26 10° SSE
Meteor 1-19 Rocket 4.3 17:23:24 10° S 17:29:02 62° E 17:34:48 10° NNE
MSX 4.5 17:24:09 10° S 17:29:51 61° WSW 17:35:35 10° NNW
CZ-4 R/B 1.6 17:26:12 10° SE 17:29:57 46° ENE 17:33:49 10° N
CORIOLIS 4.2 17:24:46 10° SSE 17:30:05 62° ENE 17:35:24 10° N
Abrixas rocket 2.5 17:27:54 10° WSW 17:31:08 63° S 17:33:52 14° E
NOSS 3-2 (C) 4.0 17:24:44 10° NW 17:32:05 80° NE 17:40:12 10° SE
Cosmos 1975 Rocket 3.5 17:27:56 10° SSW 17:32:24 66° WNW 17:36:53 10° N
Cosmos 2298 Rocket 4.4 17:27:28 10° SW 17:32:45 65° WNW 17:38:03 10° NNE
ATLAS 3B R/B 3.4 17:26:52 10° NW 17:33:25 56° WSW 17:39:46 10° SSE
AQUARIUS 4.1 17:31:00 10° SSE 17:35:29 73° ENE 17:40:00 10° N
Cosmos 158 Rocket 4.3 17:33:17 10° NNW 17:38:23 69° WSW 17:43:18 10° SSE
Cosmos 1271 Rocket 3.5 17:34:39 10° NNW 17:38:24 54° W 17:42:10 10° S
Cosmos 1943 Rocket 4.1 17:35:52 10° W 17:40:09 21° NW 17:44:27 10° NNE
IDEFIX/ARIANE 42P 4.5 17:36:31 10° SSW 17:41:09 33° W 17:45:49 10° NNW
Meteor 2-9 Rocket 4.1 17:36:29 10° N 17:42:02 83° ENE 17:47:25 10° SSE
ATLAS 2AS CENTAUR R/B 3.1 17:34:29 10° SW 17:42:25 88° NW 17:50:03 13° NE
Cosmos 2279 Rocket 4.2 17:39:03 10° SSW 17:45:20 77° W 17:51:38 10° N
Cosmos 1025 Rocket 4.1 17:43:07 10° SE 17:46:35 24° E 17:48:18 19° NE
Cosmos 1980 Rocket 3.4 17:44:01 10° SSE 17:48:19 23° ESE 17:50:26 18° ENE
Cosmos 1666 3.8 17:46:25 10° NNW 17:50:02 46° W 17:53:37 10° SSW
Okean 2 4.3 17:48:47 10° SSE 17:52:12 26° E 17:53:31 22° ENE
USA 215 3.8 17:46:09 10° SE 17:52:37 62° SW 17:59:06 10° WNW
Cosmos 1656 3.8 17:47:42 10° S 17:53:06 55° ESE 17:57:25 16° NE
Cosmos 2297 Rocket 3.0 17:48:26 10° NW 17:53:58 56° WSW 17:59:29 10° S
CZ-2C R/B 4.0 17:51:24 10° NNE 17:55:58 48° E 18:00:34 10° S
Cosmos 1536 Rocket 3.4 17:56:17 10° S 18:00:37 82° E 18:04:58 10° NNE
Okean 1-7 Rocket 4.5 17:57:28 10° SE 18:01:10 27° E 18:01:59 25° ENE
NOSS 3-4 (A) 4.0 17:58:12 10° S 18:03:58 41° ESE 18:07:30 23° ENE
NOSS 3-4 (C) 4.0 17:58:18 10° S 18:04:04 41° ESE 18:07:32 23° ENE
Meteor 1-23 Rocket 4.3 17:58:46 10° S 18:04:22 58° E 18:09:55 10° NNE
NOAA 12 4.2 18:01:40 10° SE 18:06:42 49° ENE 18:11:45 10° N
Cosmos 1484 Rocket 3.9 18:02:51 10° S 18:06:45 48° W 18:10:39 10° NNW
USA 161 3.9 18:05:17 10° NNW 18:07:40 23° WNW 18:10:07 10° WSW
SKYMED 2 3.9 18:09:36 25° NE 18:11:39 41° E 18:15:46 10° S
CENTAUR R/B 3.0 18:04:08 10° NW 18:11:47 70° NE 18:20:09 10° SE
MOS 1 4.2 18:06:44 10° SSE 18:12:22 70° ENE 18:18:02 10° NNW
DNEPR-1 R/B 4.0 18:07:44 10° NW 18:12:39 86° NE 18:18:39 10° SE
Cosmos 1606 Rocket 3.9 18:10:18 10° N 18:14:24 38° ENE 18:18:26 10° SE
Cosmos 2227 4.2 18:10:55 10° NNW 18:16:37 58° NE 18:22:16 10° SE
MONITOR-E 4.0 18:14:55 10° SSE 18:17:56 63° ENE 18:20:58 10° N
SMAP 4.2 18:14:22 10° S 18:18:49 45° W 18:23:18 10° NNW
METEOR-M 4.2 18:19:23 10° SSE 18:24:45 80° WSW 18:30:08 10° NNW
Nadezhda 2 Rocket 4.5 18:19:48 10° N 18:26:09 84° E 18:32:34 10° S
Cosmos 2263 Rocket 2.7 18:22:08 10° NNW 18:27:14 35° NE 18:27:54 34° ENE
Meteor 1-28 Rocket 3.7 18:24:13 13° N 18:27:27 60° WNW 18:31:10 10° SSW
FENGYUN 3A 3.5 18:23:01 10° SSE 18:28:23 73° ENE 18:33:44 10° NNW
BREEZE-M DEB (TANK) 2.8 18:26:14 10° W 18:28:50 81° S 18:30:38 35° E
Meteor 2-4 Rocket 4.0 18:25:00 10° SSW 18:30:20 64° WNW 18:35:41 10° N
PKM 3.9 18:27:29 10° W 18:31:56 50° NNW 18:32:24 45° N
SL-16 R/B 4.2 18:28:53 10° SE 18:29:38 12° SE 18:29:38 12° SE
ALOS 2.1 18:30:05 10° SSE 18:34:45 84° ENE 18:39:27 10° NNW
USA 116 3.4 18:34:14 44° NNW 18:35:01 65° WNW 18:38:05 10° SSW
Cosmos 2322 Rocket 4.2 18:32:24 10° SE 18:32:59 12° SE 18:32:59 12° SE
Cosmos 494 Rocket 4.1 18:31:05 10° NNW 18:36:23 78° WSW 18:41:37 10° SSE
Cosmos 2278 3.9 18:31:35 10° SW 18:37:15 70° WNW 18:41:07 21° NNE
Cosmos 1726 Rocket 3.6 18:33:07 10° N 18:42:03 - SSE 18:37:13 53° ENE
Cosmos 2369 4.0 18:31:52 10° SW 18:37:32 67° WNW 18:41:27 21° NNE
SPOT 3 Rocket 3.5 18:35:58 10° SSE 18:41:09 88° W 18:46:21 10° NNW
Cosmos 2360 4.4 18:38:05 10° S 18:43:35 52° ESE 18:44:45 44° ENE
MTI 4.1 18:44:45 63° SSW 18:44:45 63° SSW 18:47:33 10° SSW
Cosmos 1515 3.8 18:40:40 10° SSW 18:44:27 74° W 18:45:37 42° N
RESURS DK-1 3.6 18:40:47 10° S 18:43:08 27° SSE 18:43:08 27° SSE
EO 1 Del DPAF 3.2 18:45:57 64° SSE 18:45:57 64° SSE 18:49:21 10° S
Cosmos 2251 Rocket 3.4 18:40:41 10° NNW 18:46:01 88° ENE 18:51:17 10° SSE
YAOGAN 1 3.9 18:42:43 10° S 18:46:49 41° W 18:50:58 10° NNW
Cosmos 1697 Rocket 2.6 18:44:06 10° SSW 18:49:46 85° WNW 18:52:23 34° NNE
Cosmos 1125 Rocket 4.4 18:47:42 10° SW 18:52:50 48° WNW 18:56:25 19° N
ERS-2 3.0 18:51:02 10° S 18:54:36 50° WSW 18:58:12 10° NNW
COSMOS 2455 3.4 18:49:31 10° NNW 18:54:55 38° NE 18:54:55 38° NE
Landsat 4 4.2 18:56:00 46° NNW 18:56:52 59° WNW 19:00:37 10° SSW
COSMO-SKYMED 1 2.8 18:58:12 37° N 18:59:47 68° WNW 19:04:06 10° SSW
SJ 16-02 2.9 18:59:45 10° WSW 19:03:44 33° WNW 19:05:59 21° N
CZ-4 R/B 4.2 19:02:29 10° SW 19:05:16 19° W 19:08:07 10° NW
Abrixas rocket 4.1 19:04:23 10° W 19:06:20 30° WSW 19:06:20 30° WSW
S3M 3.8 19:04:26 10° S 19:10:28 66° E 19:11:13 60° ENE
Cosmos 1386 Rocket 4.4 19:10:28 10° N 19:16:51 72° ENE 19:23:16 10° SSE
Cosmos 1025 Rocket 4.3 19:20:01 10° SW 19:24:01 37° WNW 19:25:14 31° NW
Cosmos 2278 Rocket 4.4 19:21:01 10° N 19:21:52 12° N 19:21:52 12° N
FengYun 1-2 T 4.5 19:25:01 10° S 19:30:37 68° WSW 19:36:18 10° NNW
Cosmos 1980 Rocket 2.3 19:26:06 10° SW 19:31:47 71° WNW 19:32:15 67° NNW
Gbstr 26 Del rocket 4.1 19:24:28 10° WSW 19:32:23 87° SSE 19:33:05 75° E
ATLAS 2AS CENTAUR R/B 4.0 19:26:57 10° W 19:34:27 40° NNW 19:37:29 30° NNE
Cosmos 1066 Rocket 4.3 19:31:58 10° SSW 19:37:26 67° WNW 19:37:35 66° WNW
SL-24 R/B - RUBIN 2 4.4 19:36:27 10° SW 19:42:06 65° WNW 19:42:06 65° WNW
Cosmos 1553 Rocket 4.2 19:36:30 10° SSW 19:42:53 70° WNW 19:45:46 35° N
NOSS 3-4 (A) 3.9 19:48:33 10° WSW 19:54:44 56° NW 19:54:57 56° NNW
NOSS 3-4 (C) 3.9 19:48:38 10° WSW 19:54:49 57° NW 19:55:01 56° NNW
CENTAUR R/B 4.1 19:55:07 10° NW 20:02:23 42° WSW 20:09:41 12° S
Cosmos 2263 Rocket 3.4 20:06:00 10° NW 20:09:39 37° WNW 20:09:39 37° WNW
SL-16 R/B 4.3 20:10:15 10° SSW 20:11:33 18° SSW 20:11:33 18° SSW
Cosmos 2322 Rocket 4.4 20:13:52 10° SSW 20:14:52 16° SSW 20:14:52 16° SSW
